Time,TemperatureF,DewpointF,PressureIn,WindDirection,WindDirectionDegrees,WindSpeedMPH,WindSpeedGustMPH,Humidity,HourlyPrecipIn,Conditions,Clouds,dailyrainin,SoftwareType,DateUTC
2013-06-16 00:02:00,67.0,33.6,29.93,SSE,158,2.2,2.7,29,0.00,,,0.00,WUHU216HW,2013-06-16 05:02:00,
2013-06-16 00:07:00,67.0,33.6,29.93,SE,135,0.9,2.7,29,0.00,,,0.00,WUHU216HW,2013-06-16 05:07:00,
2013-06-16 00:12:00,67.0,34.6,29.93,SE,135,0.7,2.0,30,0.00,,,0.00,WUHU216HW,2013-06-16 05:12:00,
2013-06-16 00:17:00,67.0,34.6,29.93,ESE,113,0.9,1.1,30,0.00,,,0.00,WUHU216HW,2013-06-16 05:17:00,
2013-06-16 00:22:00,67.0,35.3,29.94,ESE,113,0.0,0.9,31,0.00,,,0.00,WUHU216HW,2013-06-16 05:22:00,
2013-06-16 00:27:00,67.0,35.3,29.93,ESE,113,0.4,0.9,31,0.00,,,0.00,WUHU216HW,2013-06-16 05:27:00,
2013-06-16 00:32:00,66.8,35.9,29.93,SSE,158,0.7,1.3,32,0.00,,,0.00,WUHU216HW,2013-06-16 05:32:00,
2013-06-16 00:37:00,66.8,35.9,29.93,SSE,158,0.2,1.3,32,0.00,,,0.00,WUHU216HW,2013-06-16 05:37:00,
2013-06-16 00:42:00,66.8,35.9,29.93,SSE,158,0.0,1.1,32,0.00,,,0.00,WUHU216HW,2013-06-16 05:42:00,
2013-06-16 00:47:00,66.6,35.7,29.93,SSE,158,0.0,0.4,32,0.00,,,0.00,WUHU216HW,2013-06-16 05:47:00,
2013-06-16 00:52:00,66.6,35.7,29.93,SSE,158,0.4,0.4,32,0.00,,,0.00,WUHU216HW,2013-06-16 05:52:00,
2013-06-16 00:57:00,66.6,35.7,29.94,SE,135,1.1,1.1,32,0.00,,,0.00,WUHU216HW,2013-06-16 05:57:00,
2013-06-16 01:02:00,66.4,35.7,29.94,SE,135,0.2,1.1,32,0.00,,,0.00,WUHU216HW,2013-06-16 06:02:00,
2013-06-16 01:07:00,66.4,35.7,29.93,SSE,158,1.6,1.6,32,0.00,,,0.00,WUHU216HW,2013-06-16 06:07:00,
2013-06-16 01:12:00,66.2,35.5,29.94,SSE,158,0.4,1.6,32,0.00,,,0.00,WUHU216HW,2013-06-16 06:12:00,
2013-06-16 01:17:00,66.1,34.6,29.94,SSW,203,1.8,1.8,31,0.00,,,0.00,WUHU216HW,2013-06-16 06:17:00,
2013-06-16 01:22:00,65.9,34.4,29.95,SW,225,1.6,1.8,31,0.00,,,0.00,WUHU216HW,2013-06-16 06:22:00,
2013-06-16 01:27:00,65.9,34.4,29.95,SW,225,1.8,2.7,31,0.00,,,0.00,WUHU216HW,2013-06-16 06:27:00,
2013-06-16 01:32:00,65.7,34.3,29.95,SSW,203,0.7,2.7,31,0.00,,,0.00,WUHU216HW,2013-06-16 06:32:00,
2013-06-16 01:37:00,65.7,34.3,29.95,SW,225,0.9,1.3,31,0.00,,,0.00,WUHU216HW,2013-06-16 06:37:00,
2013-06-16 01:42:00,65.5,32.4,29.95,South,180,1.8,2.5,29,0.00,,,0.00,WUHU216HW,2013-06-16 06:42:00,
2013-06-16 01:47:00,65.5,32.4,29.94,SE,135,2.2,2.5,29,0.00,,,0.00,WUHU216HW,2013-06-16 06:47:00,
2013-06-16 01:52:00,65.7,31.5,29.94,SSW,203,4.0,6.3,28,0.00,,,0.00,WUHU216HW,2013-06-16 06:52:00,
2013-06-16 01:57:00,65.7,28.5,29.95,SSE,158,0.4,6.3,25,0.00,,,0.00,WUHU216HW,2013-06-16 06:57:00,
2013-06-16 02:02:00,65.7,28.5,29.94,SSW,203,1.8,3.1,25,0.00,,,0.00,WUHU216HW,2013-06-16 07:02:00,
2013-06-16 02:07:00,65.9,29.7,29.94,SE,135,0.9,2.9,26,0.00,,,0.00,WUHU216HW,2013-06-16 07:07:00,
2013-06-16 02:12:00,65.9,28.7,29.94,SSE,158,1.8,3.6,25,0.00,,,0.00,WUHU216HW,2013-06-16 07:12:00,
2013-06-16 02:17:00,65.7,27.6,29.94,South,180,3.6,3.6,24,0.00,,,0.00,WUHU216HW,2013-06-16 07:17:00,
2013-06-16 02:22:00,65.7,26.6,29.94,South,180,2.5,3.6,23,0.00,,,0.00,WUHU216HW,2013-06-16 07:22:00,
2013-06-16 02:27:00,65.5,26.4,29.94,SE,135,1.1,2.7,23,0.00,,,0.00,WUHU216HW,2013-06-16 07:27:00,
2013-06-16 02:32:00,65.3,25.2,29.95,South,180,1.8,2.9,22,0.00,,,0.00,WUHU216HW,2013-06-16 07:32:00,
2013-06-16 02:37:00,65.3,25.2,29.95,South,180,3.4,3.4,22,0.00,,,0.00,WUHU216HW,2013-06-16 07:37:00,
2013-06-16 02:42:00,65.3,25.2,29.95,South,180,0.4,3.4,22,0.00,,,0.00,WUHU216HW,2013-06-16 07:42:00,
2013-06-16 02:47:00,65.3,25.2,29.94,South,180,3.1,3.1,22,0.00,,,0.00,WUHU216HW,2013-06-16 07:47:00,
2013-06-16 02:52:00,65.2,25.1,29.94,South,180,1.1,3.1,22,0.00,,,0.00,WUHU216HW,2013-06-16 07:52:00,
2013-06-16 02:57:00,65.2,25.1,29.93,South,180,0.9,2.5,22,0.00,,,0.00,WUHU216HW,2013-06-16 07:57:00,
2013-06-16 03:02:00,65.2,25.1,29.93,SW,225,1.1,1.6,22,0.00,,,0.00,WUHU216HW,2013-06-16 08:02:00,
2013-06-16 03:07:00,65.2,25.1,29.94,WSW,248,0.0,1.6,22,0.00,,,0.00,WUHU216HW,2013-06-16 08:07:00,
2013-06-16 03:12:00,65.2,26.1,29.93,WSW,248,0.0,1.1,23,0.00,,,0.00,WUHU216HW,2013-06-16 08:12:00,
2013-06-16 03:17:00,65.2,26.1,29.94,WSW,248,0.2,0.4,23,0.00,,,0.00,WUHU216HW,2013-06-16 08:17:00,
2013-06-16 03:22:00,65.2,26.1,29.94,West,270,0.2,1.1,23,0.00,,,0.00,WUHU216HW,2013-06-16 08:22:00,
2013-06-16 03:27:00,65.2,26.1,29.94,West,270,0.2,1.1,23,0.00,,,0.00,WUHU216HW,2013-06-16 08:27:00,
2013-06-16 03:32:00,65.2,26.1,29.93,West,270,0.0,0.2,23,0.00,,,0.00,WUHU216HW,2013-06-16 08:32:00,
2013-06-16 03:37:00,65.2,26.1,29.94,NW,315,0.4,0.7,23,0.00,,,0.00,WUHU216HW,2013-06-16 08:37:00,
2013-06-16 03:42:00,65.2,26.1,29.93,NW,315,0.0,0.7,23,0.00,,,0.00,WUHU216HW,2013-06-16 08:42:00,
2013-06-16 03:47:00,65.2,27.1,29.94,North,0,0.4,0.4,24,0.00,,,0.00,WUHU216HW,2013-06-16 08:47:00,
2013-06-16 03:52:00,65.2,27.1,29.93,North,0,0.2,0.9,24,0.00,,,0.00,WUHU216HW,2013-06-16 08:52:00,
2013-06-16 03:57:00,65.2,27.1,29.94,North,0,0.4,0.9,24,0.00,,,0.00,WUHU216HW,2013-06-16 08:57:00,
2013-06-16 04:02:00,65.2,27.1,29.94,North,0,0.2,0.4,24,0.00,,,0.00,WUHU216HW,2013-06-16 09:02:00,
2013-06-16 04:07:00,65.2,27.1,29.94,North,0,0.2,0.4,24,0.00,,,0.00,WUHU216HW,2013-06-16 09:07:00,
2013-06-16 04:30:00,65.5,27.4,29.94,North,0,0.0,0.0,24,0.00,,,0.00,WUHU216HW,2013-06-16 09:30:00,
2013-06-16 04:35:00,65.5,27.4,29.94,North,0,0.0,0.7,24,0.00,,,0.00,WUHU216HW,2013-06-16 09:35:00,
2013-06-16 04:40:00,65.5,27.4,29.94,North,0,0.0,0.7,24,0.00,,,0.00,WUHU216HW,2013-06-16 09:40:00,
2013-06-16 04:45:00,65.5,27.4,29.94,NNE,23,0.0,0.4,24,0.00,,,0.00,WUHU216HW,2013-06-16 09:45:00,
2013-06-16 04:50:00,65.7,27.6,29.95,NNE,23,0.0,0.4,24,0.00,,,0.00,WUHU216HW,2013-06-16 09:50:00,
2013-06-16 04:55:00,65.7,27.6,29.95,NNE,23,0.0,0.0,24,0.00,,,0.00,WUHU216HW,2013-06-16 09:55:00,
2013-06-16 05:00:00,65.7,27.6,29.95,NNE,23,0.0,0.0,24,0.00,,,0.00,WUHU216HW,2013-06-16 10:00:00,
2013-06-16 05:05:00,65.7,27.6,29.95,SE,135,0.2,0.9,24,0.00,,,0.00,WUHU216HW,2013-06-16 10:05:00,
2013-06-16 05:10:00,65.7,27.6,29.94,ESE,113,0.4,0.9,24,0.00,,,0.00,WUHU216HW,2013-06-16 10:10:00,
2013-06-16 05:15:00,65.7,27.6,29.95,SE,135,0.4,0.9,24,0.00,,,0.00,WUHU216HW,2013-06-16 10:15:00,
2013-06-16 05:20:00,65.5,27.4,29.94,ESE,113,0.2,1.1,24,0.00,,,0.00,WUHU216HW,2013-06-16 10:20:00,
2013-06-16 05:25:00,65.5,27.4,29.94,ESE,113,0.0,1.1,24,0.00,,,0.00,WUHU216HW,2013-06-16 10:25:00,
2013-06-16 05:30:00,65.5,27.4,29.94,ESE,113,1.1,1.1,24,0.00,,,0.00,WUHU216HW,2013-06-16 10:30:00,
2013-06-16 05:35:00,65.5,27.4,29.94,East,90,0.0,1.1,24,0.00,,,0.00,WUHU216HW,2013-06-16 10:35:00,
2013-06-16 05:40:00,65.3,27.2,29.94,NE,45,0.0,0.9,24,0.00,,,0.00,WUHU216HW,2013-06-16 10:40:00,
2013-06-16 05:45:00,65.5,27.4,29.94,East,90,1.3,1.6,24,0.00,,,0.00,WUHU216HW,2013-06-16 10:45:00,
2013-06-16 05:50:00,65.5,27.4,29.94,NNE,23,0.7,1.6,24,0.00,,,0.00,WUHU216HW,2013-06-16 10:50:00,
2013-06-16 05:55:00,65.5,27.4,29.94,NNE,23,0.4,1.8,24,0.00,,,0.00,WUHU216HW,2013-06-16 10:55:00,
2013-06-16 06:00:00,65.5,27.4,29.94,NNE,23,0.0,1.8,24,0.00,,,0.00,WUHU216HW,2013-06-16 11:00:00,
2013-06-16 06:05:00,65.3,27.2,29.95,ENE,68,0.0,0.4,24,0.00,,,0.00,WUHU216HW,2013-06-16 11:05:00,
2013-06-16 06:10:00,65.3,27.2,29.95,NNE,23,1.1,1.1,24,0.00,,,0.00,WUHU216HW,2013-06-16 11:10:00,
2013-06-16 06:15:00,65.3,27.2,29.95,NNE,23,0.4,1.1,24,0.00,,,0.00,WUHU216HW,2013-06-16 11:15:00,
2013-06-16 06:20:00,65.3,27.2,29.95,NNE,23,0.0,1.1,24,0.00,,,0.00,WUHU216HW,2013-06-16 11:20:00,
2013-06-16 06:25:00,65.2,27.1,29.95,SW,225,0.4,0.4,24,0.00,,,0.00,WUHU216HW,2013-06-16 11:25:00,
2013-06-16 06:30:00,65.2,27.1,29.95,SSW,203,0.9,0.9,24,0.00,,,0.00,WUHU216HW,2013-06-16 11:30:00,
2013-06-16 06:35:00,65.0,26.9,29.95,South,180,0.0,1.1,24,0.00,,,0.00,WUHU216HW,2013-06-16 11:35:00,
2013-06-16 06:40:00,65.2,27.1,29.96,South,180,0.0,1.1,24,0.00,,,0.00,WUHU216HW,2013-06-16 11:40:00,
2013-06-16 06:45:00,65.3,27.2,29.96,NW,315,0.0,0.0,24,0.00,,,0.00,WUHU216HW,2013-06-16 11:45:00,
2013-06-16 06:50:00,65.5,27.4,29.96,NNW,338,0.0,0.0,24,0.00,,,0.00,WUHU216HW,2013-06-16 11:50:00,
2013-06-16 06:55:00,65.7,27.6,29.95,NNW,338,0.0,0.2,24,0.00,,,0.00,WUHU216HW,2013-06-16 11:55:00,
2013-06-16 07:00:00,65.7,26.6,29.96,NW,315,0.0,0.2,23,0.00,,,0.00,WUHU216HW,2013-06-16 12:00:00,
2013-06-16 07:05:00,65.9,26.6,29.96,NW,315,0.0,0.2,23,0.00,,,0.00,WUHU216HW,2013-06-16 12:05:00,
2013-06-16 07:10:00,66.1,26.8,29.96,WNW,293,0.9,0.9,23,0.00,,,0.00,WUHU216HW,2013-06-16 12:10:00,
2013-06-16 07:15:00,66.1,26.8,29.97,NW,315,0.0,1.1,23,0.00,,,0.00,WUHU216HW,2013-06-16 12:15:00,
2013-06-16 07:20:00,66.1,26.8,29.97,WNW,293,0.2,1.1,23,0.00,,,0.00,WUHU216HW,2013-06-16 12:20:00,
2013-06-16 07:25:00,66.2,27.0,29.97,North,0,0.2,1.1,23,0.00,,,0.00,WUHU216HW,2013-06-16 12:25:00,
2013-06-16 07:30:00,66.2,27.0,29.97,North,0,0.9,0.9,23,0.00,,,0.00,WUHU216HW,2013-06-16 12:30:00,
2013-06-16 07:35:00,66.4,27.1,29.96,WNW,293,0.2,0.9,23,0.00,,,0.00,WUHU216HW,2013-06-16 12:35:00,
2013-06-16 07:40:00,66.4,27.1,29.96,NW,315,0.2,0.4,23,0.00,,,0.00,WUHU216HW,2013-06-16 12:40:00,
2013-06-16 07:45:00,66.4,27.1,29.97,NNE,23,0.4,1.6,23,0.00,,,0.00,WUHU216HW,2013-06-16 12:45:00,
2013-06-16 07:50:00,66.6,27.3,29.97,WNW,293,1.1,2.0,23,0.00,,,0.00,WUHU216HW,2013-06-16 12:50:00,
2013-06-16 07:55:00,66.6,27.3,29.97,West,270,0.4,2.0,23,0.00,,,0.00,WUHU216HW,2013-06-16 12:55:00,
2013-06-16 08:00:00,66.8,27.5,29.97,NNE,23,0.9,2.2,23,0.00,,,0.00,WUHU216HW,2013-06-16 13:00:00,
2013-06-16 08:05:00,67.0,27.6,29.97,NW,315,1.1,2.2,23,0.00,,,0.00,WUHU216HW,2013-06-16 13:05:00,
2013-06-16 08:10:00,67.0,27.6,29.97,NNW,338,0.4,1.1,23,0.00,,,0.00,WUHU216HW,2013-06-16 13:10:00,
2013-06-16 08:15:00,67.3,27.9,29.97,NW,315,0.4,2.5,23,0.00,,,0.00,WUHU216HW,2013-06-16 13:15:00,
2013-06-16 08:20:00,67.5,28.1,29.97,North,0,0.2,3.4,23,0.00,,,0.00,WUHU216HW,2013-06-16 13:20:00,
2013-06-16 08:25:00,67.9,28.4,29.97,NNE,23,0.9,3.4,23,0.00,,,0.00,WUHU216HW,2013-06-16 13:25:00,
2013-06-16 08:30:00,68.0,28.5,29.97,North,0,1.8,3.4,23,0.00,,,0.00,WUHU216HW,2013-06-16 13:30:00,
2013-06-16 08:35:00,68.4,28.8,29.97,NNE,23,0.4,4.3,23,0.00,,,0.00,WUHU216HW,2013-06-16 13:35:00,
2013-06-16 08:40:00,68.9,29.3,29.97,North,0,1.3,4.7,23,0.00,,,0.00,WUHU216HW,2013-06-16 13:40:00,
2013-06-16 08:45:00,69.5,28.7,29.97,NE,45,1.3,4.7,22,0.00,,,0.00,WUHU216HW,2013-06-16 13:45:00,
2013-06-16 08:50:00,70.0,30.2,29.97,NNE,23,2.5,4.7,23,0.00,,,0.00,WUHU216HW,2013-06-16 13:50:00,
2013-06-16 08:55:00,70.2,30.3,29.97,NNE,23,1.1,4.7,23,0.00,,,0.00,WUHU216HW,2013-06-16 13:55:00,
2013-06-16 09:00:00,70.4,31.5,29.97,NE,45,2.7,4.7,24,0.00,,,0.00,WUHU216HW,2013-06-16 14:00:00,
2013-06-16 09:05:00,70.4,32.5,29.97,NE,45,0.4,4.7,25,0.00,,,0.00,WUHU216HW,2013-06-16 14:05:00,
2013-06-16 09:10:00,70.7,32.8,29.97,ESE,113,5.1,5.1,25,0.00,,,0.00,WUHU216HW,2013-06-16 14:10:00,
2013-06-16 09:15:00,70.9,32.9,29.97,East,90,3.4,5.1,25,0.00,,,0.00,WUHU216HW,2013-06-16 14:15:00,
2013-06-16 09:20:00,71.1,34.1,29.97,North,0,3.1,5.1,26,0.00,,,0.00,WUHU216HW,2013-06-16 14:20:00,
2013-06-16 09:25:00,71.5,34.5,29.97,East,90,2.9,4.9,26,0.00,,,0.00,WUHU216HW,2013-06-16 14:25:00,
2013-06-16 09:30:00,71.8,34.7,29.97,NNE,23,0.0,4.9,26,0.00,,,0.00,WUHU216HW,2013-06-16 14:30:00,
2013-06-16 09:36:00,72.0,34.9,29.97,SE,135,2.9,4.0,26,0.00,,,0.00,WUHU216HW,2013-06-16 14:36:00,
2013-06-16 09:41:00,72.4,35.2,29.97,East,90,2.5,4.0,26,0.00,,,0.00,WUHU216HW,2013-06-16 14:41:00,
2013-06-16 09:46:00,72.5,36.4,29.97,NE,45,4.7,4.7,27,0.00,,,0.00,WUHU216HW,2013-06-16 14:46:00,
2013-06-16 09:51:00,72.7,37.5,29.97,NE,45,3.4,4.7,28,0.00,,,0.00,WUHU216HW,2013-06-16 14:51:00,
2013-06-16 09:56:00,73.1,37.8,29.97,East,90,1.8,4.7,28,0.00,,,0.00,WUHU216HW,2013-06-16 14:56:00,
2013-06-16 10:01:00,73.3,38.0,29.97,ENE,68,1.8,3.8,28,0.00,,,0.00,WUHU216HW,2013-06-16 15:01:00,
2013-06-16 10:06:00,73.8,37.5,29.97,East,90,3.1,4.0,27,0.00,,,0.00,WUHU216HW,2013-06-16 15:06:00,
2013-06-16 10:11:00,74.2,38.8,29.97,NE,45,1.8,4.3,28,0.00,,,0.00,WUHU216HW,2013-06-16 15:11:00,
2013-06-16 10:16:00,74.5,39.1,29.97,ESE,113,2.2,4.3,28,0.00,,,0.00,WUHU216HW,2013-06-16 15:16:00,
2013-06-16 10:21:00,74.7,39.3,29.97,NNE,23,2.5,2.9,28,0.00,,,0.00,WUHU216HW,2013-06-16 15:21:00,
2013-06-16 10:26:00,75.1,40.6,29.97,NNE,23,1.1,4.5,29,0.00,,,0.00,WUHU216HW,2013-06-16 15:26:00,
2013-06-16 10:31:00,75.4,39.9,29.97,NNE,23,2.9,4.5,28,0.00,,,0.00,WUHU216HW,2013-06-16 15:31:00,
2013-06-16 10:36:00,76.0,40.3,29.97,NNE,23,1.1,4.9,28,0.00,,,0.00,WUHU216HW,2013-06-16 15:36:00,
2013-06-16 10:41:00,76.5,41.9,29.97,NE,45,3.6,6.9,29,0.00,,,0.00,WUHU216HW,2013-06-16 15:41:00,
2013-06-16 10:46:00,76.9,42.2,29.98,NNW,338,3.6,6.9,29,0.00,,,0.00,WUHU216HW,2013-06-16 15:46:00,
2013-06-16 10:51:00,77.2,42.5,29.98,NNE,23,4.9,7.6,29,0.00,,,0.00,WUHU216HW,2013-06-16 15:51:00,
2013-06-16 10:56:00,77.8,42.9,29.97,NNE,23,2.5,7.6,29,0.00,,,0.00,WUHU216HW,2013-06-16 15:56:00,
2013-06-16 11:01:00,78.1,44.3,29.98,NNE,23,2.0,5.6,30,0.00,,,0.00,WUHU216HW,2013-06-16 16:01:00,
2013-06-16 11:06:00,78.7,44.6,29.98,East,90,6.3,6.3,30,0.00,,,0.00,WUHU216HW,2013-06-16 16:06:00,
2013-06-16 11:11:00,79.4,46.1,29.98,NE,45,4.5,7.2,31,0.00,,,0.00,WUHU216HW,2013-06-16 16:11:00,
2013-06-16 11:16:00,79.6,47.0,29.98,NNE,23,4.9,7.2,32,0.00,,,0.00,WUHU216HW,2013-06-16 16:16:00,
2013-06-16 11:21:00,79.6,47.8,29.98,NE,45,2.5,6.9,33,0.00,,,0.00,WUHU216HW,2013-06-16 16:21:00,
2013-06-16 11:26:00,79.6,48.6,29.98,NNE,23,7.6,7.6,34,0.00,,,0.00,WUHU216HW,2013-06-16 16:26:00,
2013-06-16 11:31:00,79.9,48.9,29.98,NNE,23,3.4,7.6,34,0.00,,,0.00,WUHU216HW,2013-06-16 16:31:00,
2013-06-16 11:36:00,80.1,49.9,29.98,NNE,23,2.5,5.8,35,0.00,,,0.00,WUHU216HW,2013-06-16 16:36:00,
2013-06-16 11:41:00,81.0,50.6,29.98,East,90,4.5,6.7,35,0.00,,,0.00,WUHU216HW,2013-06-16 16:41:00,
2013-06-16 11:46:00,81.7,51.2,29.98,ENE,68,6.7,6.7,35,0.00,,,0.00,WUHU216HW,2013-06-16 16:46:00,
2013-06-16 11:51:00,82.6,53.6,29.98,NE,45,6.3,6.7,37,0.00,,,0.00,WUHU216HW,2013-06-16 16:51:00,
2013-06-16 11:56:00,83.2,55.6,29.98,NE,45,2.0,6.3,39,0.00,,,0.00,WUHU216HW,2013-06-16 16:56:00,
2013-06-16 12:01:00,83.7,58.1,29.98,ENE,68,7.2,7.2,42,0.00,,,0.00,WUHU216HW,2013-06-16 17:01:00,
2013-06-16 12:06:00,84.1,59.8,29.99,NNE,23,5.1,7.2,44,0.00,,,0.00,WUHU216HW,2013-06-16 17:06:00,
2013-06-16 12:11:00,84.1,60.4,29.99,NNE,23,4.0,5.6,45,0.00,,,0.00,WUHU216HW,2013-06-16 17:11:00,
2013-06-16 12:16:00,83.5,58.1,29.99,East,90,3.8,5.6,42,0.00,,,0.00,WUHU216HW,2013-06-16 17:16:00,
2013-06-16 12:21:00,84.2,59.3,29.99,East,90,4.0,6.3,43,0.00,,,0.00,WUHU216HW,2013-06-16 17:21:00,
2013-06-16 12:26:00,85.1,62.6,29.99,NNE,23,1.6,6.3,47,0.00,,,0.00,WUHU216HW,2013-06-16 17:26:00,
2013-06-16 12:31:00,85.3,62.2,29.99,East,90,4.9,5.8,46,0.00,,,0.00,WUHU216HW,2013-06-16 17:31:00,
2013-06-16 12:36:00,86.0,64.1,29.98,East,90,6.7,6.7,48,0.00,,,0.00,WUHU216HW,2013-06-16 17:36:00,
2013-06-16 12:41:00,86.4,64.5,29.98,ENE,68,9.4,9.4,48,0.00,,,0.00,WUHU216HW,2013-06-16 17:41:00,
2013-06-16 12:46:00,86.8,65.3,29.98,ENE,68,4.7,9.4,49,0.00,,,0.00,WUHU216HW,2013-06-16 17:46:00,
2013-06-16 12:51:00,87.1,65.1,29.98,NNE,23,3.8,4.9,48,0.00,,,0.00,WUHU216HW,2013-06-16 17:51:00,
2013-06-16 12:56:00,87.8,66.3,29.98,NNE,23,4.7,4.7,49,0.00,,,0.00,WUHU216HW,2013-06-16 17:56:00,
2013-06-16 13:01:00,88.4,67.4,29.98,ESE,113,6.3,6.3,50,0.00,,,0.00,WUHU216HW,2013-06-16 18:01:00,
2013-06-16 13:06:00,89.5,67.8,29.98,ESE,113,2.2,6.3,49,0.00,,,0.00,WUHU216HW,2013-06-16 18:06:00,
2013-06-16 13:11:00,91.1,69.8,29.97,ESE,113,6.3,8.3,50,0.00,,,0.00,WUHU216HW,2013-06-16 18:11:00,
2013-06-16 13:16:00,91.8,70.6,29.97,East,90,7.6,8.3,50,0.00,,,0.00,WUHU216HW,2013-06-16 18:16:00,
2013-06-16 13:21:00,92.2,70.2,29.97,East,90,8.1,8.1,49,0.00,,,0.00,WUHU216HW,2013-06-16 18:21:00,
2013-06-16 13:26:00,92.2,70.2,29.97,East,90,6.0,8.1,49,0.00,,,0.00,WUHU216HW,2013-06-16 18:26:00,
2013-06-16 13:31:00,90.4,68.0,29.97,East,90,6.5,6.5,48,0.00,,,0.00,WUHU216HW,2013-06-16 18:31:00,
2013-06-16 13:36:00,90.2,67.8,29.97,NE,45,6.9,6.9,48,0.00,,,0.00,WUHU216HW,2013-06-16 18:36:00,
2013-06-16 13:41:00,92.2,70.2,29.97,ENE,68,2.7,6.9,49,0.00,,,0.00,WUHU216HW,2013-06-16 18:41:00,
2013-06-16 13:46:00,92.3,69.8,29.96,East,90,4.7,6.3,48,0.00,,,0.00,WUHU216HW,2013-06-16 18:46:00,
2013-06-16 13:51:00,91.4,69.6,29.97,NNE,23,3.6,6.3,49,0.00,,,0.00,WUHU216HW,2013-06-16 18:51:00,
2013-06-16 13:56:00,92.0,69.4,29.97,East,90,7.8,7.8,48,0.00,,,0.00,WUHU216HW,2013-06-16 18:56:00,
2013-06-16 14:01:00,92.7,70.0,29.97,ENE,68,5.4,7.8,48,0.00,,,0.00,WUHU216HW,2013-06-16 19:01:00,
2013-06-16 14:06:00,93.6,70.2,29.97,ESE,113,3.4,6.7,47,0.00,,,0.00,WUHU216HW,2013-06-16 19:06:00,
2013-06-16 14:11:00,94.9,70.7,29.96,ESE,113,2.2,5.8,46,0.00,,,0.00,WUHU216HW,2013-06-16 19:11:00,
2013-06-16 14:16:00,95.0,70.9,29.96,SSE,158,0.0,4.9,46,0.00,,,0.00,WUHU216HW,2013-06-16 19:16:00,
2013-06-16 14:21:00,95.8,70.9,29.96,ESE,113,4.3,7.2,45,0.00,,,0.00,WUHU216HW,2013-06-16 19:21:00,
2013-06-16 14:26:00,95.4,69.3,29.96,ENE,68,4.7,7.2,43,0.00,,,0.00,WUHU216HW,2013-06-16 19:26:00,
2013-06-16 14:31:00,95.2,69.1,29.95,East,90,0.7,4.7,43,0.00,,,0.00,WUHU216HW,2013-06-16 19:31:00,
2013-06-16 14:36:00,95.4,69.3,29.95,East,90,9.8,10.7,43,0.00,,,0.00,WUHU216HW,2013-06-16 19:36:00,
2013-06-16 14:41:00,94.7,68.0,29.95,East,90,4.5,10.7,42,0.00,,,0.00,WUHU216HW,2013-06-16 19:41:00,
2013-06-16 14:46:00,94.0,67.3,29.95,East,90,8.7,10.5,42,0.00,,,0.00,WUHU216HW,2013-06-16 19:46:00,
2013-06-16 14:51:00,93.2,68.0,29.95,East,90,6.3,10.5,44,0.00,,,0.00,WUHU216HW,2013-06-16 19:51:00,
2013-06-16 14:56:00,92.9,67.0,29.94,East,90,10.7,10.7,43,0.00,,,0.00,WUHU216HW,2013-06-16 19:56:00,
2013-06-16 15:01:00,92.9,67.6,29.94,ENE,68,7.8,10.7,44,0.00,,,0.00,WUHU216HW,2013-06-16 20:01:00,
2013-06-16 15:06:00,93.6,67.6,29.94,NNE,23,3.1,10.1,43,0.00,,,0.00,WUHU216HW,2013-06-16 20:06:00,
2013-06-16 15:11:00,94.5,67.2,29.94,ESE,113,5.6,10.5,41,0.00,,,0.00,WUHU216HW,2013-06-16 20:11:00,
2013-06-16 15:16:00,94.1,68.1,29.94,East,90,6.9,10.5,43,0.00,,,0.00,WUHU216HW,2013-06-16 20:16:00,
2013-06-16 15:21:00,95.6,70.1,29.94,East,90,5.6,6.9,44,0.00,,,0.00,WUHU216HW,2013-06-16 20:21:00,
2013-06-16 15:26:00,96.1,69.3,29.95,East,90,9.2,9.2,42,0.00,,,0.00,WUHU216HW,2013-06-16 20:26:00,
2013-06-16 15:31:00,94.7,68.0,29.95,ENE,68,6.7,9.2,42,0.00,,,0.00,WUHU216HW,2013-06-16 20:31:00,
2013-06-16 15:36:00,94.3,68.3,29.95,ENE,68,6.7,7.6,43,0.00,,,0.00,WUHU216HW,2013-06-16 20:36:00,
2013-06-16 15:41:00,95.8,68.9,29.95,East,90,4.5,7.4,42,0.00,,,0.00,WUHU216HW,2013-06-16 20:41:00,
2013-06-16 15:47:00,95.0,68.9,29.95,NE,45,4.7,7.6,43,0.00,,,0.00,WUHU216HW,2013-06-16 20:47:00,
2013-06-16 15:52:00,95.6,68.8,29.95,East,90,5.4,7.6,42,0.00,,,0.00,WUHU216HW,2013-06-16 20:52:00,
2013-06-16 15:57:00,95.8,68.9,29.95,East,90,4.0,7.6,42,0.00,,,0.00,WUHU216HW,2013-06-16 20:57:00,
2013-06-16 16:02:00,95.6,67.4,29.95,ESE,113,4.9,9.2,40,0.00,,,0.00,WUHU216HW,2013-06-16 21:02:00,
2013-06-16 16:07:00,93.4,66.8,29.95,ENE,68,6.0,9.2,42,0.00,,,0.00,WUHU216HW,2013-06-16 21:07:00,
2013-06-16 16:12:00,94.0,68.0,29.95,East,90,6.7,7.6,43,0.00,,,0.00,WUHU216HW,2013-06-16 21:12:00,
2013-06-16 16:17:00,95.6,67.4,29.95,NE,45,4.7,7.6,40,0.00,,,0.00,WUHU216HW,2013-06-16 21:17:00,
2013-06-16 16:22:00,97.4,69.8,29.95,NNE,23,1.1,7.6,41,0.00,,,0.00,WUHU216HW,2013-06-16 21:22:00,
2013-06-16 16:27:00,99.4,70.0,29.96,NE,45,4.0,5.1,39,0.00,,,0.00,WUHU216HW,2013-06-16 21:27:00,
2013-06-16 16:32:00,100.3,70.0,29.96,North,0,5.1,6.7,38,0.00,,,0.00,WUHU216HW,2013-06-16 21:32:00,
2013-06-16 16:37:00,100.4,69.3,29.96,NE,45,6.3,6.9,37,0.00,,,0.00,WUHU216HW,2013-06-16 21:37:00,
2013-06-16 16:42:00,100.4,68.5,29.96,NE,45,3.8,6.9,36,0.00,,,0.00,WUHU216HW,2013-06-16 21:42:00,
2013-06-16 16:47:00,100.4,68.5,29.95,NNW,338,1.3,6.9,36,0.00,,,0.00,WUHU216HW,2013-06-16 21:47:00,
2013-06-16 16:52:00,101.2,69.1,29.95,East,90,1.1,6.9,36,0.00,,,0.00,WUHU216HW,2013-06-16 21:52:00,
2013-06-16 16:57:00,102.1,69.0,29.95,NNE,23,3.4,4.7,35,0.00,,,0.00,WUHU216HW,2013-06-16 21:57:00,
2013-06-16 17:02:00,102.6,67.9,29.95,NNE,23,7.4,7.4,33,0.00,,,0.00,WUHU216HW,2013-06-16 22:02:00,
2013-06-16 17:07:00,102.4,68.5,29.95,East,90,2.0,7.4,34,0.00,,,0.00,WUHU216HW,2013-06-16 22:07:00,
2013-06-16 17:12:00,103.0,69.8,29.95,NE,45,1.6,6.9,35,0.00,,,0.00,WUHU216HW,2013-06-16 22:12:00,
2013-06-16 17:17:00,102.4,66.9,29.94,North,0,5.1,8.1,32,0.00,,,0.00,WUHU216HW,2013-06-16 22:17:00,
2013-06-16 17:22:00,101.5,67.8,29.94,North,0,3.8,8.1,34,0.00,,,0.00,WUHU216HW,2013-06-16 22:22:00,
2013-06-16 17:27:00,102.1,69.0,29.93,NE,45,2.2,6.9,35,0.00,,,0.00,WUHU216HW,2013-06-16 22:27:00,
2013-06-16 17:32:00,103.3,69.3,29.93,NE,45,4.7,5.4,34,0.00,,,0.00,WUHU216HW,2013-06-16 22:32:00,
2013-06-16 17:37:00,103.7,68.9,29.93,ESE,113,9.8,9.8,33,0.00,,,0.00,WUHU216HW,2013-06-16 22:37:00,
2013-06-16 17:42:00,102.4,66.0,29.93,East,90,6.9,9.8,31,0.00,,,0.00,WUHU216HW,2013-06-16 22:42:00,
2013-06-16 17:47:00,101.2,65.8,29.92,NE,45,5.8,9.6,32,0.00,,,0.00,WUHU216HW,2013-06-16 22:47:00,
2013-06-16 17:52:00,100.8,66.3,29.92,ENE,68,7.6,8.5,33,0.00,,,0.00,WUHU216HW,2013-06-16 22:52:00,
2013-06-16 17:59:00,100.8,66.3,29.93,East,90,5.6,7.6,33,0.00,,,0.00,WUHU216HW,2013-06-16 22:59:00,
2013-06-16 18:04:00,100.4,66.9,29.93,East,90,4.7,9.2,34,0.00,,,0.00,WUHU216HW,2013-06-16 23:04:00,
2013-06-16 18:09:00,99.5,66.9,29.94,NNE,23,4.3,9.2,35,0.00,,,0.00,WUHU216HW,2013-06-16 23:09:00,
2013-06-16 18:14:00,98.3,66.6,29.94,NNE,23,6.3,7.2,36,0.00,,,0.00,WUHU216HW,2013-06-16 23:14:00,
2013-06-16 18:19:00,98.8,66.3,29.93,NE,45,3.6,9.6,35,0.00,,,0.00,WUHU216HW,2013-06-16 23:19:00,
2013-06-16 18:24:00,98.3,66.6,29.94,NE,45,3.4,9.6,36,0.00,,,0.00,WUHU216HW,2013-06-16 23:24:00,
2013-06-16 18:29:00,96.8,65.3,29.94,ENE,68,4.5,8.3,36,0.00,,,0.00,WUHU216HW,2013-06-16 23:29:00,
2013-06-16 18:34:00,95.4,65.7,29.95,NE,45,4.0,4.7,38,0.00,,,0.00,WUHU216HW,2013-06-16 23:34:00,
2013-06-16 18:39:00,94.3,65.5,29.94,ENE,68,5.1,5.1,39,0.00,,,0.00,WUHU216HW,2013-06-16 23:39:00,
2013-06-16 18:45:00,92.5,63.9,29.94,ENE,68,4.5,6.7,39,0.00,,,0.00,WUHU216HW,2013-06-16 23:45:00,
2013-06-16 18:50:00,91.1,63.4,29.94,East,90,5.4,6.7,40,0.00,,,0.00,WUHU216HW,2013-06-16 23:50:00,
2013-06-16 18:55:00,90.0,63.1,29.95,East,90,7.2,7.2,41,0.00,,,0.00,WUHU216HW,2013-06-16 23:55:00,
2013-06-16 19:00:00,89.1,62.9,29.95,ENE,68,5.6,7.2,42,0.00,,,0.00,WUHU216HW,2013-06-17 00:00:00,
2013-06-16 19:05:00,88.6,62.6,29.95,NE,45,6.0,6.5,42,0.00,,,0.00,WUHU216HW,2013-06-17 00:05:00,
2013-06-16 19:10:00,87.8,62.6,29.95,NE,45,2.9,6.5,43,0.00,,,0.00,WUHU216HW,2013-06-17 00:10:00,
2013-06-16 19:15:00,87.7,63.0,29.95,East,90,4.0,4.9,44,0.00,,,0.00,WUHU216HW,2013-06-17 00:15:00,
2013-06-16 19:20:00,87.3,63.4,29.95,North,0,4.3,4.7,45,0.00,,,0.00,WUHU216HW,2013-06-17 00:20:00,
2013-06-16 19:25:00,86.8,62.8,29.95,ENE,68,4.0,4.3,45,0.00,,,0.00,WUHU216HW,2013-06-17 00:25:00,
2013-06-16 19:30:00,86.4,62.6,29.95,NNE,23,4.5,4.5,45,0.00,,,0.00,WUHU216HW,2013-06-17 00:30:00,
2013-06-16 19:35:00,85.7,62.5,29.95,NNE,23,5.8,6.3,46,0.00,,,0.00,WUHU216HW,2013-06-17 00:35:00,
2013-06-16 19:40:00,85.0,61.2,29.96,NE,45,3.1,6.3,45,0.00,,,0.00,WUHU216HW,2013-06-17 00:40:00,
2013-06-16 19:45:00,84.4,61.4,29.96,NNE,23,4.0,6.7,46,0.00,,,0.00,WUHU216HW,2013-06-17 00:45:00,
2013-06-16 19:50:00,83.9,60.8,29.96,NNE,23,3.8,6.7,46,0.00,,,0.00,WUHU216HW,2013-06-17 00:50:00,
2013-06-16 19:55:00,83.5,61.1,29.97,NNE,23,3.6,4.5,47,0.00,,,0.00,WUHU216HW,2013-06-17 00:55:00,
2013-06-16 20:00:00,83.2,61.4,29.98,NNE,23,1.1,4.5,48,0.00,,,0.00,WUHU216HW,2013-06-17 01:00:00,
2013-06-16 20:05:00,82.6,60.8,29.98,NNE,23,1.8,4.5,48,0.00,,,0.00,WUHU216HW,2013-06-17 01:05:00,
2013-06-16 20:10:00,82.4,61.3,29.97,NNE,23,2.5,2.9,49,0.00,,,0.00,WUHU216HW,2013-06-17 01:10:00,
2013-06-16 20:15:00,82.3,61.1,29.97,NE,45,2.2,2.9,49,0.00,,,0.00,WUHU216HW,2013-06-17 01:15:00,
2013-06-16 20:20:00,81.7,60.7,29.98,North,0,0.7,2.7,49,0.00,,,0.00,WUHU216HW,2013-06-17 01:20:00,
2013-06-16 20:25:00,81.2,60.8,29.98,North,0,1.3,2.5,50,0.00,,,0.00,WUHU216HW,2013-06-17 01:25:00,
2013-06-16 20:30:00,80.6,60.3,29.98,North,0,1.1,1.8,50,0.00,,,0.00,WUHU216HW,2013-06-17 01:30:00,
2013-06-16 20:35:00,80.3,60.5,29.99,NNE,23,3.1,3.1,51,0.00,,,0.00,WUHU216HW,2013-06-17 01:35:00,
2013-06-16 20:40:00,79.9,59.7,29.99,NNE,23,2.9,3.8,50,0.00,,,0.00,WUHU216HW,2013-06-17 01:40:00,
2013-06-16 20:45:00,79.9,60.2,29.98,North,0,0.4,3.8,51,0.00,,,0.00,WUHU216HW,2013-06-17 01:45:00,
2013-06-16 20:50:00,79.7,60.0,29.98,NNW,338,0.0,1.8,51,0.00,,,0.00,WUHU216HW,2013-06-17 01:50:00,
2013-06-16 20:55:00,79.7,60.0,29.98,NNE,23,0.7,1.8,51,0.00,,,0.00,WUHU216HW,2013-06-17 01:55:00,
2013-06-16 21:00:00,79.6,59.3,29.98,WNW,293,1.1,1.1,50,0.00,,,0.00,WUHU216HW,2013-06-17 02:00:00,
2013-06-16 21:05:00,79.2,59.5,29.97,WSW,248,2.7,2.7,51,0.00,,,0.00,WUHU216HW,2013-06-17 02:05:00,
2013-06-16 21:10:00,78.8,59.2,29.96,SW,225,3.1,3.1,51,0.00,,,0.00,WUHU216HW,2013-06-17 02:10:00,
2013-06-16 21:15:00,78.1,58.6,29.96,WSW,248,3.4,4.0,51,0.00,,,0.00,WUHU216HW,2013-06-17 02:15:00,
2013-06-16 21:20:00,77.8,58.2,29.95,WSW,248,4.0,4.0,51,0.00,,,0.00,WUHU216HW,2013-06-17 02:20:00,
2013-06-16 21:25:00,76.7,57.8,29.95,WSW,248,3.4,4.9,52,0.00,,,0.00,WUHU216HW,2013-06-17 02:25:00,
2013-06-16 21:30:00,76.5,57.6,29.95,SW,225,3.6,4.9,52,0.00,,,0.00,WUHU216HW,2013-06-17 02:30:00,
2013-06-16 21:35:00,76.5,57.6,29.95,SW,225,4.7,4.7,52,0.00,,,0.00,WUHU216HW,2013-06-17 02:35:00,
2013-06-16 21:40:00,76.5,57.6,29.96,SW,225,3.4,4.7,52,0.00,,,0.00,WUHU216HW,2013-06-17 02:40:00,
2013-06-16 21:45:00,76.5,57.6,29.96,SW,225,2.7,4.7,52,0.00,,,0.00,WUHU216HW,2013-06-17 02:45:00,
2013-06-16 21:50:00,76.3,57.4,29.95,SSW,203,2.0,4.7,52,0.00,,,0.00,WUHU216HW,2013-06-17 02:50:00,
2013-06-16 21:55:00,76.0,57.6,29.94,South,180,7.6,8.7,53,0.00,,,0.00,WUHU216HW,2013-06-17 02:55:00,
2013-06-16 22:00:00,75.6,56.8,29.93,SSW,203,8.5,9.8,52,0.00,,,0.00,WUHU216HW,2013-06-17 03:00:00,
2013-06-16 22:05:00,75.4,56.6,29.93,SE,135,5.6,9.8,52,0.00,,,0.00,WUHU216HW,2013-06-17 03:05:00,
2013-06-16 22:10:00,75.4,57.2,29.93,SW,225,3.8,8.3,53,0.00,,,0.00,WUHU216HW,2013-06-17 03:10:00,
2013-06-16 22:15:00,75.6,57.2,29.94,SSW,203,5.4,7.4,53,0.00,,,0.00,WUHU216HW,2013-06-17 03:15:00,
2013-06-16 22:20:00,75.6,57.2,29.94,SSW,203,3.6,7.4,53,0.00,,,0.00,WUHU216HW,2013-06-17 03:20:00,
2013-06-16 22:25:00,75.6,57.2,29.94,SW,225,0.4,6.7,53,0.00,,,0.00,WUHU216HW,2013-06-17 03:25:00,
2013-06-16 22:30:00,75.6,57.2,29.94,SW,225,0.2,3.8,53,0.00,,,0.00,WUHU216HW,2013-06-17 03:30:00,
2013-06-16 22:36:00,75.4,57.2,29.95,North,0,1.6,2.0,53,0.00,,,0.00,WUHU216HW,2013-06-17 03:36:00,
2013-06-16 22:41:00,75.2,57.0,29.95,North,0,2.5,3.4,53,0.00,,,0.00,WUHU216HW,2013-06-17 03:41:00,
2013-06-16 22:46:00,74.7,56.4,29.94,NNE,23,1.8,3.4,53,0.00,,,0.00,WUHU216HW,2013-06-17 03:46:00,
2013-06-16 22:51:00,74.5,56.3,29.93,NNE,23,2.2,6.3,53,0.00,,,0.00,WUHU216HW,2013-06-17 03:51:00,
2013-06-16 22:56:00,74.5,56.3,29.93,NE,45,1.1,6.3,53,0.00,,,0.00,WUHU216HW,2013-06-17 03:56:00,
2013-06-16 23:01:00,74.5,56.3,29.93,ENE,68,1.3,2.2,53,0.00,,,0.00,WUHU216HW,2013-06-17 04:01:00,
2013-06-16 23:02:00,74.5,56.3,29.93,East,90,2.5,2.5,53,0.00,,,0.00,WUHU216HW,2013-06-17 04:02:00,
2013-06-16 23:07:00,74.2,55.9,29.93,East,90,1.8,3.4,53,0.00,,,0.00,WUHU216HW,2013-06-17 04:07:00,
2013-06-16 23:12:00,74.2,55.9,29.93,East,90,0.2,3.4,53,0.00,,,0.00,WUHU216HW,2013-06-17 04:12:00,
2013-06-16 23:17:00,74.2,55.9,29.93,East,90,0.0,1.6,53,0.00,,,0.00,WUHU216HW,2013-06-17 04:17:00,
2013-06-16 23:22:00,74.0,55.7,29.94,East,90,0.0,0.0,53,0.00,,,0.00,WUHU216HW,2013-06-17 04:22:00,
2013-06-16 23:27:00,73.8,55.5,29.95,NNE,23,0.4,0.4,53,0.00,,,0.00,WUHU216HW,2013-06-17 04:27:00,
2013-06-16 23:32:00,73.6,55.4,29.94,NNE,23,0.4,0.9,53,0.00,,,0.00,WUHU216HW,2013-06-17 04:32:00,
2013-06-16 23:37:00,73.6,54.8,29.94,East,90,2.0,2.0,52,0.00,,,0.00,WUHU216HW,2013-06-17 04:37:00,
2013-06-16 23:42:00,73.4,54.6,29.94,ENE,68,0.2,2.0,52,0.00,,,0.00,WUHU216HW,2013-06-17 04:42:00,
2013-06-16 23:47:00,73.3,54.5,29.94,East,90,1.3,1.8,52,0.00,,,0.00,WUHU216HW,2013-06-17 04:47:00,
2013-06-16 23:52:00,73.1,54.4,29.94,East,90,0.9,2.2,52,0.00,,,0.00,WUHU216HW,2013-06-17 04:52:00,
2013-06-16 23:57:00,73.1,54.4,29.93,East,90,2.0,2.7,52,0.00,,,0.00,WUHU216HW,2013-06-17 04:57:00,